STARLINK-11430, 62916

Orbit data source: Space-Track

STARLINK-11430, 62916 is a payload satellite owned by SpaceX/Seattle (US) in LEO that was launched on Sat, 08 Feb 2025 UTC via an FALCON 9 launch vehicle from the Air Force Eastern Test Range (AFETR). Payload-class satellites include a variety of spacecraft equipped with specific instruments for various scientific and technological missions. These include communications satellites like Starlink; space stations such as the ISS; scientific satellites like the Hubble; Earth observation satellites from companies like Planet Labs, Umbra, and HawkEye 360; GPS; miniature CubeSats for education and research; and military/defense satellites.

Loading next visibility...
Identifier
62916, 2025-027K
Orbit
LEO
Country
Flag of USUS
Related business
Manufacturer
SpaceX/Seattle
Mission
Operational Commercial Communications
Bus & Motor
STARLINK V2MD, Unknown motor
Mass
960 kg wet, ~910 kg dry
Launch date (UTC)
2025-02-08 (1 year ago)
Launch vehicle
FALCON 9
Launch site
Air Force Eastern Test Range (AFETR)
Object type
Payload
Rocket body
Debris
Shape & HBR
Box + 2 Pan, 18.1 m
Radar Cross Section
36.964 m², Large (>1 m²)

Expand to show TLE details & history
Last TLE update: 12 hours ago

TLE from 12 hours ago
0 STARLINK-11430
1 62916U 25027K   26036.42825701  .00355668  00000-0  26469-2 0  9998
2 62916  42.9991 182.5348 0001968 262.2306  97.8338 15.70943604 58118
Epoch: 2026-02-05T10:16Z
TLE epoch observation values (Epoch: 2026-02-05T10:16:41.405Z)
Latitude
-0.00004°
Longitude
-107.21839°
Altitude
356.151 km
Speed
7.697 km/s
True Right ascension
12h 10m 08s
True Declination
0° 00' 00"
Sunlit
Object was in full shadow at epoch
Visualization orbit readout
Latitude
Unknown
Longitude
Unknown
Altitude
Unknown
Speed
Unknown
Apparent Right ascension
Unknown
Apparent Declination
Unknown
Sunlit
N/A
Visualization observer readout
Local Sidereal Time
00:23:42
Azimuth
Unknown
Elevation
Unknown
Doppler factor
Unknown
Orbital elements
Apogee altitude
359.506 km
Perigee altitude
356.855 km
Semi-major axis
6,736.318 km
Eccentricity
0.0002
Inclination
42.9991°
RAAN
182.5348°
Arg. of periapsis
262.2306°
True anomaly
97.85614°
Mean anomaly
97.8338°
Eccentric anomaly
97.84497°
Mean motion
3.92563 °/min
Orbital period
91.71 mins
BSTAR
0.0026469
Loading maneuver chart data...
Computing Atmospheric mass density...
Loading historical data...
Loading historical data...
Loading historical data...
Loading historical data...
Loading historical data...
Loading historical data...
Loading historical data...

Documentation

Showing up to 5 results
|